Weather History for KJXN - November, 2011

Change the Weather History Date:

Wednesday, November 16, 2011

  Actual Average Record
Temperature  
Mean Temperature 39 °F 40 °F  
Max Temperature 48 °F 48 °F 67 °F (1953)
Min Temperature 29 °F 32 °F 11 °F (1972)
Degree Days  
Heating Degree Days 26 25  
Month to date heating degree days 357  
Since 1 July heating degree days 1005  
Cooling Degree Days 0 0  
Month to date cooling degree days 0  
Year to date cooling degree days 592  
Moisture  
Dew Point 31 °F    
Average Humidity 67    
Maximum Humidity 93    
Minimum Humidity 41    
Precipitation  
Precipitation 0.00 in 0.09 in 1.43 in (1988)
Month to date precipitation 1.23 1.42  
Year to date precipitation 28.45  
Sea Level Pressure  
Sea Level Pressure 29.93 in    
Wind  
Wind Speed 8 mph (West)    
Max Wind Speed 18 mph    
Max Gust Speed 26 mph    
Visibility 10 miles    
Events      
T = Trace of Precipitation, MM = Missing Value Source: NWS Daily Summary

Daily Weather History Graph

Daily Weather History Graph

Search for Another Location

Airport or City:

Trip Planner

Search our weather history database for the weather conditions in past years. The results will help you decide how hot, cold, wet, or windy it might be!

Date:

Astronomy

Nov. 16, 2011 Rise Set
Actual Time 7:29 AM EST 5:15 PM EST
Civil Twilight 6:59 AM EST 5:45 PM EST
Nautical Twilight 6:25 AM EST 6:19 PM EST
Astronomical Twilight 5:51 AM EST 6:52 PM EST
Moon 10:29 PM EST (11/16) 12:04 PM EST (11/16)
Length of Visible Light 10h 46m
Length of Day
9h 46m
Waning Gibbous, 70% of the Moon is Illuminated
Nov 16
Waning Gibbous
Nov 18
Last Quarter
Nov 25
New
Dec 2
First Quarter
Dec 10
Full

Hourly Weather History & Observations

Time (EST) Temp. Windchill Dew Point Humidity Pressure Visibility Wind Dir Wind Speed Gust Speed Precip Events Conditions
12:56 AM 46.9 °F - 44.1 °F 90% 29.81 in 10.0 mi SW 6.9 mph - N/A   Clear
1:33 AM 48.2 °F - 44.6 °F 87% 29.79 in 10.0 mi SW 6.9 mph - N/A   Mostly Cloudy
1:43 AM 48.2 °F - 44.6 °F 87% 29.79 in 10.0 mi WSW 6.9 mph - N/A   Scattered Clouds
1:54 AM 48.2 °F - 46.4 °F 93% 29.80 in 10.0 mi WSW 9.2 mph - N/A   Mostly Cloudy
1:56 AM 48.0 °F - 46.0 °F 93% 29.80 in 10.0 mi WSW 8.1 mph - N/A   Mostly Cloudy
2:25 AM 48.2 °F - 44.6 °F 87% 29.80 in 9.0 mi WSW 5.8 mph - N/A   Scattered Clouds
3:56 AM 46.0 °F 43.1 °F 43.0 °F 89% 29.82 in 8.0 mi West 5.8 mph - N/A   Clear
4:56 AM 44.1 °F 40.1 °F 42.1 °F 93% 29.83 in 10.0 mi West 6.9 mph - N/A   Clear
5:56 AM 43.0 °F 37.7 °F 37.0 °F 80% 29.86 in 10.0 mi WNW 9.2 mph - N/A   Clear
6:56 AM 41.0 °F 36.4 °F 34.0 °F 76% 29.87 in 10.0 mi WNW 6.9 mph - N/A   Clear
7:56 AM 39.0 °F 31.4 °F 30.0 °F 70% 29.91 in 10.0 mi NW 12.7 mph - N/A   Clear
8:56 AM 39.0 °F 31.4 °F 27.0 °F 62% 29.92 in 10.0 mi NW 12.7 mph 18.4 mph N/A   Clear
9:56 AM 39.9 °F 33.4 °F 28.0 °F 63% 29.94 in 10.0 mi NW 10.4 mph 17.3 mph N/A   Clear
10:56 AM 42.1 °F 35.2 °F 27.0 °F 55% 29.96 in 10.0 mi WNW 12.7 mph 18.4 mph N/A   Clear
11:56 AM 43.0 °F 37.2 °F 26.1 °F 51% 29.94 in 10.0 mi WNW 10.4 mph 18.4 mph N/A   Clear
12:56 PM 43.0 °F 36.4 °F 25.0 °F 49% 29.93 in 10.0 mi NW 12.7 mph 21.9 mph N/A   Clear
1:56 PM 45.0 °F 39.7 °F 27.0 °F 49% 29.92 in 10.0 mi WNW 10.4 mph 19.6 mph N/A   Clear
2:56 PM 44.1 °F 38.6 °F 23.0 °F 43% 29.95 in 10.0 mi WNW 10.4 mph 23.0 mph N/A   Clear
3:56 PM 41.0 °F 33.5 °F 24.1 °F 51% 29.97 in 10.0 mi NW 13.8 mph 21.9 mph N/A   Clear
4:56 PM 37.0 °F 27.7 °F 23.0 °F 57% 30.02 in 10.0 mi WNW 16.1 mph 24.2 mph N/A   Clear
5:56 PM 34.0 °F 26.0 °F 21.9 °F 61% 30.04 in 10.0 mi NW 10.4 mph 18.4 mph N/A   Clear
6:56 PM 34.0 °F 28.0 °F 21.9 °F 61% 30.08 in 10.0 mi WNW 6.9 mph 17.3 mph N/A   Clear
7:56 PM 32.0 °F 25.6 °F 23.0 °F 69% 30.09 in 10.0 mi WNW 6.9 mph - N/A   Clear
8:56 PM 32.0 °F 28.7 °F 21.9 °F 66% 30.09 in 10.0 mi West 3.5 mph - N/A   Clear
9:56 PM 30.2 °F 25.4 °F 23.0 °F 75% 30.06 in 10.0 mi West 4.6 mph - N/A   Clear
10:56 PM 30.0 °F 25.2 °F 23.0 °F 75% 30.09 in 10.0 mi West 4.6 mph - N/A   Clear
11:56 PM 28.9 °F 23.9 °F 23.0 °F 78% 30.09 in 10.0 mi West 4.6 mph - N/A   Clear